owner,sensor,date,latitude,longitude,vertical_datum,sea_water_temperature,qcFlag
Shell,ioos:station:wmo:42882:1,2023-06-01T00:05:00Z,26.2740,-94.4291,8.4,28.0,11111222
Shell,ioos:station:wmo:42882:1,2023-06-01T00:15:00Z,26.2750,-94.4317,8.4,28.0,11111222
Shell,ioos:station:wmo:42882:1,2023-06-01T00:25:00Z,26.2750,-94.4317,8.5,28.1,11111222
Shell,ioos:station:wmo:42882:1,2023-06-01T00:34:00Z,26.2750,-94.4317,8.5,28.3,11111222
Shell,ioos:station:wmo:42882:1,2023-06-01T00:44:00Z,26.2750,-94.4317,8.5,28.4,11111222
Shell,ioos:station:wmo:42882:1,2023-06-01T00:54:00Z,26.2750,-94.4317,8.5,28.5,11111222
Shell,ioos:station:wmo:42882:1,2023-06-01T01:04:00Z,26.2750,-94.4317,8.5,28.5,11111222
Shell,ioos:station:wmo:42882:1,2023-06-01T01:14:00Z,26.2750,-94.4317,8.4,28.5,11111222
Shell,ioos:station:wmo:42882:1,2023-06-01T01:24:00Z,26.2750,-94.4317,8.4,28.5,11111222
Shell,ioos:station:wmo:42882:1,2023-06-01T01:35:00Z,26.2750,-94.4317,8.4,28.5,11111222
Shell,ioos:station:wmo:42882:1,2023-06-01T01:45:00Z,26.2750,-94.4317,8.4,28.5,11111222
Shell,ioos:station:wmo:42882:1,2023-06-01T01:55:00Z,26.2750,-94.4317,8.3,28.5,11111222
Shell,ioos:station:wmo:42882:1,2023-06-01T02:05:00Z,26.2750,-94.4317,8.3,28.5,11111222
Shell,ioos:station:wmo:42882:1,2023-06-01T02:15:00Z,26.2750,-94.4317,8.5,28.5,11111222
Shell,ioos:station:wmo:42882:1,2023-06-01T02:25:00Z,26.2750,-94.4317,8.6,28.5,11111222
Shell,ioos:station:wmo:42882:1,2023-06-01T02:35:00Z,26.2750,-94.4317,8.5,28.5,11111222
Shell,ioos:station:wmo:42882:1,2023-06-01T02:45:00Z,26.2750,-94.4317,8.5,28.5,11111222
Shell,ioos:station:wmo:42882:1,2023-06-01T02:54:00Z,26.2750,-94.4317,8.5,28.5,11111222
Shell,ioos:station:wmo:42882:1,2023-06-01T03:04:00Z,26.2750,-94.4317,8.4,28.5,11111222
Shell,ioos:station:wmo:42882:1,2023-06-01T03:14:00Z,26.2750,-94.4317,8.4,28.5,11111222
Shell,ioos:station:wmo:42882:1,2023-06-01T03:24:00Z,26.2750,-94.4317,8.4,28.5,11111222
Shell,ioos:station:wmo:42882:1,2023-06-01T03:34:00Z,26.2750,-94.4317,8.4,28.5,11111222
Shell,ioos:station:wmo:42882:1,2023-06-01T03:44:00Z,26.2750,-94.4317,8.4,28.4,11111222
Shell,ioos:station:wmo:42882:1,2023-06-01T03:54:00Z,26.2750,-94.4317,8.3,28.4,11111222
Shell,ioos:station:wmo:42882:1,2023-06-01T04:05:00Z,26.2750,-94.4317,8.4,28.4,11111222
Shell,ioos:station:wmo:42882:1,2023-06-01T04:15:00Z,26.2750,-94.4317,8.3,28.4,11111222
Shell,ioos:station:wmo:42882:1,2023-06-01T04:25:00Z,26.2750,-94.4317,8.3,28.3,11111222
Shell,ioos:station:wmo:42882:1,2023-06-01T04:35:00Z,26.2750,-94.4317,8.3,28.4,11111222
Shell,ioos:station:wmo:42882:1,2023-06-01T04:45:00Z,26.2750,-94.4317,8.3,28.4,11111222
Shell,ioos:station:wmo:42882:1,2023-06-01T04:55:00Z,26.2750,-94.4317,8.2,28.4,11111222
Shell,ioos:station:wmo:42882:1,2023-06-01T05:05:00Z,26.2740,-94.4291,8.3,28.5,11111222
Shell,ioos:station:wmo:42882:1,2023-06-01T05:15:00Z,26.2740,-94.4291,8.2,28.5,11111222
Shell,ioos:station:wmo:42882:1,2023-06-01T05:25:00Z,26.2740,-94.4291,8.3,28.4,11111222
Shell,ioos:station:wmo:42882:1,2023-06-01T05:34:00Z,26.2740,-94.4291,8.3,28.4,11111222
Shell,ioos:station:wmo:42882:1,2023-06-01T05:44:00Z,26.2740,-94.4291,8.2,28.4,11111222
Shell,ioos:station:wmo:42882:1,2023-06-01T05:54:00Z,26.2740,-94.4291,8.2,28.5,11111222
Shell,ioos:station:wmo:42882:1,2023-06-01T06:05:00Z,26.2740,-94.4291,8.3,28.5,11111222
Shell,ioos:station:wmo:42882:1,2023-06-01T06:15:00Z,26.2740,-94.4291,8.3,28.5,11111222
Shell,ioos:station:wmo:42882:1,2023-06-01T06:25:00Z,26.2740,-94.4291,8.2,28.5,11111222
Shell,ioos:station:wmo:42882:1,2023-06-01T06:35:00Z,26.2740,-94.4291,8.2,28.5,11111222
Shell,ioos:station:wmo:42882:1,2023-06-01T06:45:00Z,26.2740,-94.4291,8.2,28.5,11111222
Shell,ioos:station:wmo:42882:1,2023-06-01T06:55:00Z,26.2740,-94.4291,8.2,28.5,11111222
Shell,ioos:station:wmo:42882:1,2023-06-01T07:05:00Z,26.2740,-94.4291,8.2,28.6,11111222
Shell,ioos:station:wmo:42882:1,2023-06-01T07:14:00Z,26.2740,-94.4291,8.2,28.6,11111222
Shell,ioos:station:wmo:42882:1,2023-06-01T07:24:00Z,26.2740,-94.4291,8.2,28.6,11111222
Shell,ioos:station:wmo:42882:1,2023-06-01T07:34:00Z,26.2740,-94.4291,8.2,28.6,11111222
Shell,ioos:station:wmo:42882:1,2023-06-01T07:44:00Z,26.2740,-94.4291,8.1,28.6,11111222
Shell,ioos:station:wmo:42882:1,2023-06-01T07:54:00Z,26.2740,-94.4291,8.1,28.6,11111222
Shell,ioos:station:wmo:42882:1,2023-06-01T08:04:00Z,26.2740,-94.4291,8.1,28.6,11111222
Shell,ioos:station:wmo:42882:1,2023-06-01T08:14:00Z,26.2740,-94.4291,8.1,28.6,11111222
Shell,ioos:station:wmo:42882:1,2023-06-01T08:24:00Z,26.2740,-94.4291,8.1,28.6,11111222
Shell,ioos:station:wmo:42882:1,2023-06-01T08:34:00Z,26.2740,-94.4291,8.2,28.6,11111222
Shell,ioos:station:wmo:42882:1,2023-06-01T08:44:00Z,26.2740,-94.4291,8.1,28.6,11111222
Shell,ioos:station:wmo:42882:1,2023-06-01T08:55:00Z,26.2740,-94.4291,8.1,28.6,11111222
Shell,ioos:station:wmo:42882:1,2023-06-01T09:05:00Z,26.2740,-94.4291,8.1,28.5,11111222
Shell,ioos:station:wmo:42882:1,2023-06-01T09:15:00Z,26.2740,-94.4291,8.1,28.5,11111222
Shell,ioos:station:wmo:42882:1,2023-06-01T09:25:00Z,26.2740,-94.4291,8.1,28.5,11111222
Shell,ioos:station:wmo:42882:1,2023-06-01T09:35:00Z,26.2740,-94.4291,8.1,28.5,11111222
Shell,ioos:station:wmo:42882:1,2023-06-01T09:45:00Z,26.2740,-94.4291,8.1,28.5,11111222
Shell,ioos:station:wmo:42882:1,2023-06-01T09:55:00Z,26.2740,-94.4291,8.1,28.5,11111222
Shell,ioos:station:wmo:42882:1,2023-06-01T10:04:00Z,26.2740,-94.4291,8.1,28.5,11111222
Shell,ioos:station:wmo:42882:1,2023-06-01T10:14:00Z,26.2740,-94.4291,8.2,28.5,11111222
Shell,ioos:station:wmo:42882:1,2023-06-01T10:24:00Z,26.2740,-94.4291,8.2,28.5,11111222
Shell,ioos:station:wmo:42882:1,2023-06-01T10:34:00Z,26.2740,-94.4291,8.2,28.5,11111222
Shell,ioos:station:wmo:42882:1,2023-06-01T10:44:00Z,26.2740,-94.4291,8.2,28.5,11111222
Shell,ioos:station:wmo:42882:1,2023-06-01T10:55:00Z,26.2740,-94.4291,8.2,28.5,11111222
Shell,ioos:station:wmo:42882:1,2023-06-01T11:05:00Z,26.2740,-94.4291,8.2,28.5,11111222
Shell,ioos:station:wmo:42882:1,2023-06-01T11:14:00Z,26.2740,-94.4291,8.2,28.5,11111222
Shell,ioos:station:wmo:42882:1,2023-06-01T11:25:00Z,26.2740,-94.4291,8.2,28.5,11111222
Shell,ioos:station:wmo:42882:1,2023-06-01T11:35:00Z,26.2740,-94.4291,8.2,28.5,11111222
Shell,ioos:station:wmo:42882:1,2023-06-01T11:45:00Z,26.2740,-94.4291,8.2,28.5,11111222
Shell,ioos:station:wmo:42882:1,2023-06-01T11:54:00Z,26.2740,-94.4291,8.2,28.5,11111222
Shell,ioos:station:wmo:42882:1,2023-06-01T12:04:00Z,26.2740,-94.4291,8.2,28.5,11111222
Shell,ioos:station:wmo:42882:1,2023-06-01T12:14:00Z,26.2740,-94.4291,8.2,28.5,11111222
Shell,ioos:station:wmo:42882:1,2023-06-01T12:24:00Z,26.2740,-94.4291,8.2,28.5,11111222
Shell,ioos:station:wmo:42882:1,2023-06-01T12:34:00Z,26.2740,-94.4291,8.2,28.5,11111222
Shell,ioos:station:wmo:42882:1,2023-06-01T12:44:00Z,26.2740,-94.4291,8.2,28.5,11111222
Shell,ioos:station:wmo:42882:1,2023-06-01T12:55:00Z,26.2740,-94.4291,8.2,28.5,11111222
Shell,ioos:station:wmo:42882:1,2023-06-01T13:05:00Z,26.2740,-94.4291,8.2,28.5,11111222
Shell,ioos:station:wmo:42882:1,2023-06-01T13:15:00Z,26.2740,-94.4291,8.2,28.5,11111222
Shell,ioos:station:wmo:42882:1,2023-06-01T13:25:00Z,26.2740,-94.4291,8.1,28.5,11111222
Shell,ioos:station:wmo:42882:1,2023-06-01T13:35:00Z,26.2740,-94.4291,8.1,28.6,11111222
Shell,ioos:station:wmo:42882:1,2023-06-01T13:45:00Z,26.2740,-94.4291,8.1,28.6,11111222
Shell,ioos:station:wmo:42882:1,2023-06-01T13:54:00Z,26.2740,-94.4291,8.1,28.6,11111222
Shell,ioos:station:wmo:42882:1,2023-06-01T14:04:00Z,26.2740,-94.4291,8.4,28.6,11111222
Shell,ioos:station:wmo:42882:1,2023-06-01T14:14:00Z,26.2740,-94.4291,8.5,28.6,11111222
Shell,ioos:station:wmo:42882:1,2023-06-01T14:24:00Z,26.2740,-94.4291,8.6,28.6,11111222
Shell,ioos:station:wmo:42882:1,2023-06-01T14:34:00Z,26.2740,-94.4291,8.6,28.6,11111222
Shell,ioos:station:wmo:42882:1,2023-06-01T14:44:00Z,26.2740,-94.4291,8.2,28.6,11111222
Shell,ioos:station:wmo:42882:1,2023-06-01T14:54:00Z,26.2740,-94.4291,8.2,28.6,11111222
Shell,ioos:station:wmo:42882:1,2023-06-01T15:04:00Z,26.2740,-94.4291,8.2,28.6,11111222
Shell,ioos:station:wmo:42882:1,2023-06-01T15:15:00Z,26.2740,-94.4291,8.1,28.6,11111222
Shell,ioos:station:wmo:42882:1,2023-06-01T15:25:00Z,26.2740,-94.4291,8.3,28.5,11111222
Shell,ioos:station:wmo:42882:1,2023-06-01T15:35:00Z,26.2740,-94.4291,8.2,28.5,11111222
Shell,ioos:station:wmo:42882:1,2023-06-01T15:45:00Z,26.2740,-94.4291,8.5,28.5,11111222
Shell,ioos:station:wmo:42882:1,2023-06-01T15:55:00Z,26.2740,-94.4291,8.2,28.4,11111222
Shell,ioos:station:wmo:42882:1,2023-06-01T16:05:00Z,26.2740,-94.4291,8.3,28.4,11111222
Shell,ioos:station:wmo:42882:1,2023-06-01T16:14:00Z,26.2740,-94.4291,8.4,28.3,11111222
Shell,ioos:station:wmo:42882:1,2023-06-01T16:24:00Z,26.2740,-94.4291,8.3,28.3,11111222
Shell,ioos:station:wmo:42882:1,2023-06-01T16:34:00Z,26.2740,-94.4291,8.3,28.3,11111222
Shell,ioos:station:wmo:42882:1,2023-06-01T16:44:00Z,26.2740,-94.4291,8.5,28.3,11111222
Shell,ioos:station:wmo:42882:1,2023-06-01T16:54:00Z,26.2740,-94.4291,8.5,28.3,11111222
Shell,ioos:station:wmo:42882:1,2023-06-01T17:04:00Z,26.2740,-94.4291,8.4,28.3,11111222
Shell,ioos:station:wmo:42882:1,2023-06-01T17:14:00Z,26.2740,-94.4291,8.5,28.3,11111222
Shell,ioos:station:wmo:42882:1,2023-06-01T17:24:00Z,26.2740,-94.4291,8.4,28.3,11111222
Shell,ioos:station:wmo:42882:1,2023-06-01T17:35:00Z,26.2740,-94.4291,8.6,28.3,11111222
Shell,ioos:station:wmo:42882:1,2023-06-01T17:45:00Z,26.2740,-94.4291,8.5,28.3,11111222
Shell,ioos:station:wmo:42882:1,2023-06-01T17:55:00Z,26.2740,-94.4291,8.3,28.4,11111222
Shell,ioos:station:wmo:42882:1,2023-06-01T18:05:00Z,26.2740,-94.4291,8.5,28.4,11111222
Shell,ioos:station:wmo:42882:1,2023-06-01T18:15:00Z,26.2740,-94.4291,8.5,28.4,11111222
Shell,ioos:station:wmo:42882:1,2023-06-01T18:25:00Z,26.2740,-94.4291,8.3,28.4,11111222
Shell,ioos:station:wmo:42882:1,2023-06-01T18:35:00Z,26.2740,-94.4291,8.3,28.4,11111222
Shell,ioos:station:wmo:42882:1,2023-06-01T18:44:00Z,26.2740,-94.4291,8.6,28.4,11111222
Shell,ioos:station:wmo:42882:1,2023-06-01T18:54:00Z,26.2740,-94.4291,8.2,28.4,11111222
Shell,ioos:station:wmo:42882:1,2023-06-01T19:04:00Z,26.2740,-94.4291,8.4,28.4,11111222
Shell,ioos:station:wmo:42882:1,2023-06-01T19:14:00Z,26.2740,-94.4291,8.3,28.4,11111222
Shell,ioos:station:wmo:42882:1,2023-06-01T19:24:00Z,26.2740,-94.4291,7.8,28.5,11111222
Shell,ioos:station:wmo:42882:1,2023-06-01T19:34:00Z,26.2740,-94.4291,7.5,28.5,11111222
Shell,ioos:station:wmo:42882:1,2023-06-01T19:45:00Z,26.2740,-94.4291,7.3,28.5,11111222
Shell,ioos:station:wmo:42882:1,2023-06-01T19:51:00Z,26.2740,-94.4291,7.4,28.5,11111222
Shell,ioos:station:wmo:42882:1,2023-06-01T20:26:00Z,26.2740,-94.4291,8.6,28.1,11111222
Shell,ioos:station:wmo:42882:1,2023-06-01T20:34:00Z,26.2740,-94.4291,8.4,28.3,11111222
Shell,ioos:station:wmo:42882:1,2023-06-01T20:44:00Z,26.2741,-94.4289,8.5,28.4,11111222
Shell,ioos:station:wmo:42882:1,2023-06-01T20:54:00Z,26.2743,-94.4288,8.5,28.4,11111222
Shell,ioos:station:wmo:42882:1,2023-06-01T21:04:00Z,26.2743,-94.4288,8.5,28.4,11111222
Shell,ioos:station:wmo:42882:1,2023-06-01T21:14:00Z,26.2743,-94.4288,8.5,28.4,11111222
Shell,ioos:station:wmo:42882:1,2023-06-01T21:24:00Z,26.2743,-94.4288,8.5,28.4,11111222
Shell,ioos:station:wmo:42882:1,2023-06-01T21:35:00Z,26.2743,-94.4288,8.6,28.4,11111222
Shell,ioos:station:wmo:42882:1,2023-06-01T21:45:00Z,26.2743,-94.4288,8.6,28.4,11111222
Shell,ioos:station:wmo:42882:1,2023-06-01T21:55:00Z,26.2743,-94.4288,8.6,28.4,11111222
Shell,ioos:station:wmo:42882:1,2023-06-01T22:05:00Z,26.2743,-94.4288,8.7,28.4,11111222
Shell,ioos:station:wmo:42882:1,2023-06-01T22:15:00Z,26.2743,-94.4288,8.8,28.4,11111222
Shell,ioos:station:wmo:42882:1,2023-06-01T22:25:00Z,26.2743,-94.4288,8.6,28.4,11111222
Shell,ioos:station:wmo:42882:1,2023-06-01T22:34:00Z,26.2743,-94.4288,8.6,28.4,11111222
Shell,ioos:station:wmo:42882:1,2023-06-01T22:44:00Z,26.2743,-94.4288,8.6,28.4,11111222
Shell,ioos:station:wmo:42882:1,2023-06-01T22:54:00Z,26.2743,-94.4288,8.6,28.4,11111222
Shell,ioos:station:wmo:42882:1,2023-06-01T23:04:00Z,26.2743,-94.4288,8.6,28.4,11111222
Shell,ioos:station:wmo:42882:1,2023-06-01T23:14:00Z,26.2743,-94.4288,8.6,28.4,11111222
Shell,ioos:station:wmo:42882:1,2023-06-01T23:24:00Z,26.2743,-94.4288,8.6,28.4,11111222
Shell,ioos:station:wmo:42882:1,2023-06-01T23:34:00Z,26.2743,-94.4288,8.5,28.4,11111222
Shell,ioos:station:wmo:42882:1,2023-06-01T23:45:00Z,26.2743,-94.4288,8.5,28.4,11111222
Shell,ioos:station:wmo:42882:1,2023-06-01T23:55:00Z,26.2742,-94.4289,8.5,28.4,11111222
Shell,ioos:station:wmo:42882:1,2023-06-02T00:05:00Z,26.2740,-94.4291,8.6,28.4,11111222
Shell,ioos:station:wmo:42882:1,2023-06-02T00:15:00Z,26.2750,-94.4317,8.5,28.4,11111222
Shell,ioos:station:wmo:42882:1,2023-06-02T00:25:00Z,26.2750,-94.4317,8.5,28.4,11111222
Shell,ioos:station:wmo:42882:1,2023-06-02T00:35:00Z,26.2750,-94.4317,8.5,28.4,11111222
Shell,ioos:station:wmo:42882:1,2023-06-02T00:45:00Z,26.2750,-94.4317,8.7,28.3,11111222
Shell,ioos:station:wmo:42882:1,2023-06-02T00:54:00Z,26.2750,-94.4317,8.7,28.3,11111222
Shell,ioos:station:wmo:42882:1,2023-06-02T01:04:00Z,26.2750,-94.4317,8.7,28.4,11111222
Shell,ioos:station:wmo:42882:1,2023-06-02T01:14:00Z,26.2750,-94.4317,8.7,28.4,11111222
Shell,ioos:station:wmo:42882:1,2023-06-02T01:24:00Z,26.2750,-94.4317,8.7,28.4,11111222
Shell,ioos:station:wmo:42882:1,2023-06-02T01:34:00Z,26.2750,-94.4317,8.7,28.4,11111222
Shell,ioos:station:wmo:42882:1,2023-06-02T01:44:00Z,26.2750,-94.4317,8.7,28.4,11111222
Shell,ioos:station:wmo:42882:1,2023-06-02T01:55:00Z,26.2750,-94.4317,8.7,28.4,11111222
Shell,ioos:station:wmo:42882:1,2023-06-02T02:05:00Z,26.2750,-94.4317,8.7,28.3,11111222
Shell,ioos:station:wmo:42882:1,2023-06-02T02:15:00Z,26.2750,-94.4317,8.7,28.3,11111222
Shell,ioos:station:wmo:42882:1,2023-06-02T02:25:00Z,26.2750,-94.4317,8.7,28.3,11111222
Shell,ioos:station:wmo:42882:1,2023-06-02T02:35:00Z,26.2750,-94.4317,8.7,28.3,11111222
Shell,ioos:station:wmo:42882:1,2023-06-02T02:45:00Z,26.2750,-94.4317,8.6,28.3,11111222
Shell,ioos:station:wmo:42882:1,2023-06-02T02:55:00Z,26.2750,-94.4317,8.6,28.3,11111222
Shell,ioos:station:wmo:42882:1,2023-06-02T03:04:00Z,26.2750,-94.4317,8.6,28.3,11111222
Shell,ioos:station:wmo:42882:1,2023-06-02T03:14:00Z,26.2750,-94.4317,8.6,28.3,11111222
Shell,ioos:station:wmo:42882:1,2023-06-02T03:24:00Z,26.2750,-94.4317,8.6,28.3,11111222
Shell,ioos:station:wmo:42882:1,2023-06-02T03:34:00Z,26.2750,-94.4317,8.6,28.4,11111222
Shell,ioos:station:wmo:42882:1,2023-06-02T03:44:00Z,26.2750,-94.4317,8.6,28.4,11111222
Shell,ioos:station:wmo:42882:1,2023-06-02T03:54:00Z,26.2750,-94.4317,8.6,28.4,11111222
Shell,ioos:station:wmo:42882:1,2023-06-02T04:05:00Z,26.2750,-94.4317,8.6,28.4,11111222
Shell,ioos:station:wmo:42882:1,2023-06-02T04:15:00Z,26.2750,-94.4317,8.6,28.4,11111222
Shell,ioos:station:wmo:42882:1,2023-06-02T04:25:00Z,26.2750,-94.4317,8.6,28.4,11111222
Shell,ioos:station:wmo:42882:1,2023-06-02T04:35:00Z,26.2750,-94.4317,8.6,28.4,11111222
Shell,ioos:station:wmo:42882:1,2023-06-02T04:45:00Z,26.2750,-94.4317,8.6,28.4,11111222
Shell,ioos:station:wmo:42882:1,2023-06-02T04:55:00Z,26.2750,-94.4317,8.6,28.4,11111222
Shell,ioos:station:wmo:42882:1,2023-06-02T05:04:00Z,26.2740,-94.4296,8.6,28.4,11111222
Shell,ioos:station:wmo:42882:1,2023-06-02T05:14:00Z,26.2740,-94.4296,8.6,28.4,11111222
Shell,ioos:station:wmo:42882:1,2023-06-02T05:24:00Z,26.2740,-94.4296,8.6,28.4,11111222
Shell,ioos:station:wmo:42882:1,2023-06-02T05:34:00Z,26.2740,-94.4296,8.6,28.4,11111222
Shell,ioos:station:wmo:42882:1,2023-06-02T05:44:00Z,26.2740,-94.4296,8.6,28.4,11111222
Shell,ioos:station:wmo:42882:1,2023-06-02T05:54:00Z,26.2740,-94.4296,8.6,28.4,11111222
Shell,ioos:station:wmo:42882:1,2023-06-02T06:05:00Z,26.2740,-94.4296,8.5,28.4,11111222
Shell,ioos:station:wmo:42882:1,2023-06-02T06:15:00Z,26.2740,-94.4296,8.6,28.4,11111222
Shell,ioos:station:wmo:42882:1,2023-06-02T06:25:00Z,26.2740,-94.4296,8.5,28.4,11111222
Shell,ioos:station:wmo:42882:1,2023-06-02T06:35:00Z,26.2740,-94.4296,8.5,28.4,11111222
Shell,ioos:station:wmo:42882:1,2023-06-02T06:45:00Z,26.2740,-94.4296,8.5,28.4,11111222
Shell,ioos:station:wmo:42882:1,2023-06-02T06:55:00Z,26.2740,-94.4296,8.5,28.4,11111222
Shell,ioos:station:wmo:42882:1,2023-06-02T07:05:00Z,26.2740,-94.4296,8.5,28.4,11111222
Shell,ioos:station:wmo:42882:1,2023-06-02T07:14:00Z,26.2740,-94.4296,8.5,28.3,11111222
Shell,ioos:station:wmo:42882:1,2023-06-02T07:24:00Z,26.2740,-94.4296,8.5,28.4,11111222
Shell,ioos:station:wmo:42882:1,2023-06-02T07:34:00Z,26.2740,-94.4296,8.5,28.3,11111222
Shell,ioos:station:wmo:42882:1,2023-06-02T07:44:00Z,26.2740,-94.4296,8.5,28.3,11111222
Shell,ioos:station:wmo:42882:1,2023-06-02T07:54:00Z,26.2740,-94.4296,8.5,28.3,11111222
Shell,ioos:station:wmo:42882:1,2023-06-02T08:04:00Z,26.2740,-94.4296,8.7,28.3,11111222
Shell,ioos:station:wmo:42882:1,2023-06-02T08:15:00Z,26.2740,-94.4296,8.8,28.3,11111222
Shell,ioos:station:wmo:42882:1,2023-06-02T08:25:00Z,26.2740,-94.4296,8.8,28.3,11111222
Shell,ioos:station:wmo:42882:1,2023-06-02T08:35:00Z,26.2740,-94.4296,8.7,28.3,11111222
Shell,ioos:station:wmo:42882:1,2023-06-02T08:45:00Z,26.2740,-94.4296,8.7,28.3,11111222
Shell,ioos:station:wmo:42882:1,2023-06-02T08:55:00Z,26.2740,-94.4296,8.7,28.3,11111222
Shell,ioos:station:wmo:42882:1,2023-06-02T09:05:00Z,26.2740,-94.4296,8.7,28.3,11111222
Shell,ioos:station:wmo:42882:1,2023-06-02T09:15:00Z,26.2740,-94.4296,8.7,28.3,11111222
Shell,ioos:station:wmo:42882:1,2023-06-02T09:24:00Z,26.2740,-94.4296,8.7,28.3,11111222
Shell,ioos:station:wmo:42882:1,2023-06-02T09:34:00Z,26.2740,-94.4296,8.7,28.3,11111222
Shell,ioos:station:wmo:42882:1,2023-06-02T09:44:00Z,26.2740,-94.4296,8.8,28.3,11111222
Shell,ioos:station:wmo:42882:1,2023-06-02T09:54:00Z,26.2740,-94.4296,8.8,28.3,11111222
Shell,ioos:station:wmo:42882:1,2023-06-02T10:04:00Z,26.2740,-94.4296,8.8,28.4,11111222
Shell,ioos:station:wmo:42882:1,2023-06-02T10:14:00Z,26.2740,-94.4296,8.8,28.4,11111222
Shell,ioos:station:wmo:42882:1,2023-06-02T10:24:00Z,26.2740,-94.4296,8.8,28.4,11111222
Shell,ioos:station:wmo:42882:1,2023-06-02T10:35:00Z,26.2740,-94.4296,8.8,28.4,11111222
Shell,ioos:station:wmo:42882:1,2023-06-02T10:45:00Z,26.2740,-94.4296,8.8,28.4,11111222
Shell,ioos:station:wmo:42882:1,2023-06-02T10:55:00Z,26.2740,-94.4296,8.8,28.4,11111222
Shell,ioos:station:wmo:42882:1,2023-06-02T11:05:00Z,26.2740,-94.4296,8.8,28.4,11111222
Shell,ioos:station:wmo:42882:1,2023-06-02T11:15:00Z,26.2740,-94.4296,8.8,28.4,11111222
Shell,ioos:station:wmo:42882:1,2023-06-02T11:25:00Z,26.2740,-94.4296,8.7,28.4,11111222
Shell,ioos:station:wmo:42882:1,2023-06-02T11:34:00Z,26.2740,-94.4296,8.6,28.4,11111222
Shell,ioos:station:wmo:42882:1,2023-06-02T11:44:00Z,26.2740,-94.4296,8.7,28.4,11111222
Shell,ioos:station:wmo:42882:1,2023-06-02T11:54:00Z,26.2740,-94.4296,8.7,28.4,11111222
Shell,ioos:station:wmo:42882:1,2023-06-02T12:04:00Z,26.2740,-94.4296,8.6,28.4,11111222
Shell,ioos:station:wmo:42882:1,2023-06-02T12:14:00Z,26.2740,-94.4296,8.6,28.4,11111222
Shell,ioos:station:wmo:42882:1,2023-06-02T12:24:00Z,26.2740,-94.4296,8.6,28.4,11111222
Shell,ioos:station:wmo:42882:1,2023-06-02T12:34:00Z,26.2740,-94.4296,8.6,28.4,11111222
Shell,ioos:station:wmo:42882:1,2023-06-02T12:44:00Z,26.2740,-94.4296,8.7,28.4,11111222
Shell,ioos:station:wmo:42882:1,2023-06-02T12:54:00Z,26.2740,-94.4296,8.7,28.4,11111222
Shell,ioos:station:wmo:42882:1,2023-06-02T13:04:00Z,26.2741,-94.4298,8.6,28.4,11111222
Shell,ioos:station:wmo:42882:1,2023-06-02T13:15:00Z,26.2741,-94.4298,8.7,28.4,11111222
Shell,ioos:station:wmo:42882:1,2023-06-02T13:24:00Z,26.2741,-94.4298,8.7,28.4,11111222
Shell,ioos:station:wmo:42882:1,2023-06-02T13:34:00Z,26.2741,-94.4298,8.7,28.5,11111222
Shell,ioos:station:wmo:42882:1,2023-06-02T13:44:00Z,26.2741,-94.4298,8.7,28.5,11111222
Shell,ioos:station:wmo:42882:1,2023-06-02T13:54:00Z,26.2741,-94.4298,8.7,28.5,11111222
Shell,ioos:station:wmo:42882:1,2023-06-02T14:04:00Z,26.2741,-94.4298,8.7,28.5,11111222
Shell,ioos:station:wmo:42882:1,2023-06-02T14:14:00Z,26.2741,-94.4298,8.6,28.6,11111222
Shell,ioos:station:wmo:42882:1,2023-06-02T14:24:00Z,26.2741,-94.4298,8.6,28.6,11111222
Shell,ioos:station:wmo:42882:1,2023-06-02T14:35:00Z,26.2741,-94.4297,8.6,28.6,11111222
Shell,ioos:station:wmo:42882:1,2023-06-02T14:45:00Z,26.2741,-94.4298,8.6,28.6,11111222
Shell,ioos:station:wmo:42882:1,2023-06-02T14:55:00Z,26.2741,-94.4297,8.6,28.6,11111222
Shell,ioos:station:wmo:42882:1,2023-06-02T15:05:00Z,26.2741,-94.4298,8.6,28.6,11111222
Shell,ioos:station:wmo:42882:1,2023-06-02T15:15:00Z,26.2741,-94.4298,8.6,28.6,11111222
Shell,ioos:station:wmo:42882:1,2023-06-02T15:24:00Z,26.2741,-94.4298,8.6,28.6,11111222
Shell,ioos:station:wmo:42882:1,2023-06-02T15:35:00Z,26.2741,-94.4298,8.6,28.6,11111222
Shell,ioos:station:wmo:42882:1,2023-06-02T15:45:00Z,26.2741,-94.4298,8.6,28.7,11111222
Shell,ioos:station:wmo:42882:1,2023-06-02T15:55:00Z,26.2741,-94.4298,8.6,28.7,11111222
Shell,ioos:station:wmo:42882:1,2023-06-02T16:05:00Z,26.2741,-94.4298,8.6,28.7,11111222
Shell,ioos:station:wmo:42882:1,2023-06-02T16:14:00Z,26.2741,-94.4298,8.6,28.7,11111222
Shell,ioos:station:wmo:42882:1,2023-06-02T16:25:00Z,26.2741,-94.4298,8.6,28.7,11111222
Shell,ioos:station:wmo:42882:1,2023-06-02T16:35:00Z,26.2741,-94.4298,8.6,28.7,11111222
Shell,ioos:station:wmo:42882:1,2023-06-02T16:45:00Z,26.2741,-94.4297,8.7,28.7,11111222
Shell,ioos:station:wmo:42882:1,2023-06-02T16:54:00Z,26.2741,-94.4297,8.6,28.7,11111222
Shell,ioos:station:wmo:42882:1,2023-06-02T17:05:00Z,26.2741,-94.4297,8.6,28.7,11111222
Shell,ioos:station:wmo:42882:1,2023-06-02T17:15:00Z,26.2741,-94.4297,8.6,28.7,11111222
Shell,ioos:station:wmo:42882:1,2023-06-02T17:25:00Z,26.2741,-94.4297,8.6,28.7,11111222
Shell,ioos:station:wmo:42882:1,2023-06-02T17:35:00Z,26.2741,-94.4297,8.6,28.7,11111222
Shell,ioos:station:wmo:42882:1,2023-06-02T17:44:00Z,26.2741,-94.4297,8.6,28.7,11111222
Shell,ioos:station:wmo:42882:1,2023-06-02T17:55:00Z,26.2741,-94.4297,8.6,28.7,11111222
Shell,ioos:station:wmo:42882:1,2023-06-02T18:05:00Z,26.2741,-94.4297,8.6,28.7,11111222
Shell,ioos:station:wmo:42882:1,2023-06-02T18:15:00Z,26.2741,-94.4297,8.6,28.7,11111222
Shell,ioos:station:wmo:42882:1,2023-06-02T18:24:00Z,26.2741,-94.4297,8.5,28.7,11111222
Shell,ioos:station:wmo:42882:1,2023-06-02T18:35:00Z,26.2741,-94.4297,8.5,28.7,11111222
Shell,ioos:station:wmo:42882:1,2023-06-02T18:45:00Z,26.2741,-94.4297,8.5,28.7,11111222
Shell,ioos:station:wmo:42882:1,2023-06-02T18:55:00Z,26.2741,-94.4297,8.5,28.7,11111222
Shell,ioos:station:wmo:42882:1,2023-06-02T19:05:00Z,26.2741,-94.4297,8.5,28.7,11111222
Shell,ioos:station:wmo:42882:1,2023-06-02T19:14:00Z,26.2741,-94.4298,8.5,28.7,11111222
Shell,ioos:station:wmo:42882:1,2023-06-02T19:25:00Z,26.2741,-94.4298,8.6,28.6,11111222
Shell,ioos:station:wmo:42882:1,2023-06-02T19:35:00Z,26.2741,-94.4297,8.7,28.6,11111222
Shell,ioos:station:wmo:42882:1,2023-06-02T19:45:00Z,26.2741,-94.4297,8.7,28.6,11111222
Shell,ioos:station:wmo:42882:1,2023-06-02T19:55:00Z,26.2741,-94.4297,8.7,28.6,11111222
Shell,ioos:station:wmo:42882:1,2023-06-02T20:04:00Z,26.2741,-94.4297,8.7,28.6,11111222
Shell,ioos:station:wmo:42882:1,2023-06-02T20:15:00Z,26.2741,-94.4297,8.7,28.6,11111222
Shell,ioos:station:wmo:42882:1,2023-06-02T20:25:00Z,26.2741,-94.4297,8.7,28.6,11111222
Shell,ioos:station:wmo:42882:1,2023-06-02T20:35:00Z,26.2741,-94.4297,8.7,28.6,11111222
Shell,ioos:station:wmo:42882:1,2023-06-02T20:45:00Z,26.2741,-94.4297,8.7,28.6,11111222
Shell,ioos:station:wmo:42882:1,2023-06-02T20:54:00Z,26.2741,-94.4298,8.7,28.6,11111222
Shell,ioos:station:wmo:42882:1,2023-06-02T21:05:00Z,26.2741,-94.4298,8.7,28.5,11111222
Shell,ioos:station:wmo:42882:1,2023-06-02T21:15:00Z,26.2741,-94.4297,8.7,28.5,11111222
Shell,ioos:station:wmo:42882:1,2023-06-02T21:25:00Z,26.2741,-94.4298,8.7,28.5,11111222